Presque Isle, ME

2:22 AM EST on December 08, 2016 (GMT -0500)
Northern Maine Regional At Presque Isle

Weather History for KPQI - February, 2013

Change the Weather History Date:

Tuesday, February 5, 2013

  Actual Average Record
Temperature  
Mean Temperature 0 °F -  
Max Temperature 8 °F 20 °F 43 °F (1947)
Min Temperature -7 °F 0 °F -29 °F (1948)
Degree Days  
Heating Degree Days 64    
Moisture  
Dew Point -11 °F    
Average Humidity 58    
Maximum Humidity 100    
Minimum Humidity 37    
Precipitation  
Precipitation 0.00 in - - ()
Sea Level Pressure  
Sea Level Pressure 29.79 in    
Wind  
Wind Speed 11 mph (WSW)    
Max Wind Speed 18 mph    
Max Gust Speed 29 mph    
Visibility 9 miles    
Events      
Averages and records for this station are not official NWS values.
T = Trace of Precipitation, MM = Missing Value Source: NWS Daily Summary

Daily Weather History Graph

Daily Weather History Graph

Search for Another Location

Airport or City:

Trip Planner

Search our weather history database for the weather conditions in past years. The results will help you decide how hot, cold, wet, or windy it might be!

Date:

Astronomy

Feb. 05, 2013 Rise Set
Actual Time 6:50 AM EST 4:42 PM EST
Civil Twilight 6:18 AM EST 5:14 PM EST
Nautical Twilight 5:42 AM EST 5:50 PM EST
Astronomical Twilight 5:07 AM EST 6:25 PM EST
Moon 2:35 AM EST (2/5) 11:49 AM EST (2/5)
Length of Visible Light 10h 55m
Length of Day
9h 51m
Waning Crescent, 27% of the Moon is Illuminated
Feb 5
Waning Crescent
Feb 10
New
Feb 17
First Quarter
Feb 25
Full
Mar 4
Last Quarter

Hourly Weather History & Observations

Time (EST) Temp. Windchill Dew Point Humidity Pressure Visibility Wind Dir Wind Speed Gust Speed Precip Events Conditions
12:15 AM 6.8 °F -11.8 °F -0.4 °F 72% 29.53 in 2.0 mi WSW 17.3 mph 28.8 mph N/A   Overcast
12:35 AM 6.8 °F -10.7 °F -4.0 °F 61% 29.54 in 3.0 mi WSW 15.0 mph 26.5 mph N/A   Scattered Clouds
12:55 AM 5.0 °F -12.3 °F -4.0 °F 66% 29.55 in 2.5 mi WSW 13.8 mph 26.5 mph N/A   Clear
1:15 AM 3.2 °F -13.1 °F -5.8 °F 66% 29.57 in 8.0 mi WSW 11.5 mph 23.0 mph N/A   Clear
1:35 AM 3.2 °F -15.9 °F -5.8 °F 66% 29.58 in 10.0 mi West 16.1 mph 19.6 mph N/A   Clear
2:15 AM 1.4 °F -16.9 °F -7.6 °F 66% 29.60 in 8.0 mi West 13.8 mph 17.3 mph N/A   Clear
2:35 AM 1.4 °F -16.9 °F -7.6 °F 66% 29.61 in 9.0 mi WSW 13.8 mph - N/A   Clear
2:55 AM 1.4 °F -16.9 °F -7.6 °F 66% 29.62 in 10.0 mi West 13.8 mph - N/A   Clear
3:15 AM -0.4 °F -19.2 °F -9.4 °F 66% 29.63 in 10.0 mi WSW 13.8 mph 18.4 mph N/A   Clear
3:35 AM -0.4 °F -19.2 °F -9.4 °F 66% 29.64 in 10.0 mi WSW 13.8 mph 20.7 mph N/A   Clear
3:55 AM -0.4 °F -17.6 °F -11.2 °F 60% 29.65 in 10.0 mi WSW 11.5 mph - N/A   Clear
4:15 AM -0.4 °F -19.2 °F -11.2 °F 60% 29.66 in 10.0 mi WSW 13.8 mph 20.7 mph N/A   Clear
4:35 AM -2.2 °F -18.0 °F -11.2 °F 66% 29.68 in 10.0 mi West 9.2 mph - N/A   Clear
4:55 AM -2.2 °F -18.9 °F -13.0 °F 60% 29.68 in 10.0 mi WSW 10.4 mph 17.3 mph N/A   Clear
5:15 AM -2.2 °F -20.7 °F -13.0 °F 60% 29.69 in 10.0 mi WSW 12.7 mph 19.6 mph N/A   Clear
5:35 AM -2.2 °F -24.1 °F -14.8 °F 55% 29.70 in 5.0 mi WSW 18.4 mph 21.9 mph N/A   Clear
5:55 AM -2.2 °F -20.7 °F -14.8 °F 55% 29.71 in 10.0 mi WSW 12.7 mph 19.6 mph N/A   Clear
6:15 AM -4.0 °F -23.0 °F -13.0 °F 65% 29.72 in 10.0 mi WSW 12.7 mph - N/A   Clear
6:35 AM -4.0 °F -20.2 °F -14.8 °F 60% 29.74 in 10.0 mi WSW 9.2 mph - N/A   Clear
6:55 AM -5.8 °F -22.4 °F -14.8 °F 65% 29.75 in 10.0 mi West 9.2 mph - N/A   Clear
7:15 AM -4.0 °F -20.2 °F -14.8 °F 60% 29.76 in 10.0 mi WSW 9.2 mph - N/A   Clear
7:35 AM -4.0 °F -23.7 °F -14.8 °F 60% 29.77 in 10.0 mi WSW 13.8 mph 19.6 mph N/A   Clear
7:55 AM -4.0 °F -24.5 °F -14.8 °F 60% 29.77 in 10.0 mi WSW 15.0 mph 19.6 mph N/A   Clear
8:35 AM -2.2 °F -20.7 °F -14.8 °F 55% 29.80 in 9.0 mi West 12.7 mph 19.6 mph N/A   Clear
8:55 AM -2.2 °F -19.9 °F -14.8 °F 55% 29.81 in 10.0 mi WSW 11.5 mph 19.6 mph N/A   Clear
9:15 AM -2.2 °F -22.2 °F -14.8 °F 55% 29.81 in 0.5 mi WSW 15.0 mph - N/A   Unknown
9:35 AM -0.4 °F -18.4 °F -13.0 °F 55% 29.82 in 10.0 mi WSW 12.7 mph 18.4 mph N/A   Clear
9:55 AM -0.4 °F -18.4 °F -14.8 °F 51% 29.83 in 10.0 mi West 12.7 mph 16.1 mph N/A   Clear
10:15 AM -0.4 °F -19.2 °F -13.0 °F 55% 29.83 in 10.0 mi WSW 13.8 mph - N/A   Clear
10:35 AM -0.4 °F -17.6 °F -14.8 °F 51% 29.84 in 10.0 mi WSW 11.5 mph 17.3 mph N/A   Clear
10:55 AM 1.4 °F -14.5 °F -11.2 °F 56% 29.83 in 10.0 mi West 10.4 mph - N/A   Clear
11:15 AM 1.4 °F -18.2 °F -14.8 °F 47% 29.83 in 10.0 mi West 16.1 mph 19.6 mph N/A   Clear
11:55 AM 3.2 °F -13.9 °F -13.0 °F 47% 29.82 in 10.0 mi West 12.7 mph - N/A   Clear
12:15 PM 5.0 °F -10.0 °F -13.0 °F 43% 29.82 in 10.0 mi West 10.4 mph - N/A   Clear
12:35 PM 6.8 °F -9.3 °F -13.0 °F 40% 29.82 in 10.0 mi West 12.7 mph - N/A   Clear
12:55 PM 6.8 °F -8.6 °F -13.0 °F 40% 29.83 in 10.0 mi WSW 11.5 mph - N/A   Clear
1:15 PM 6.8 °F -10.0 °F -13.0 °F 40% 29.83 in 10.0 mi WSW 13.8 mph 17.3 mph N/A   Clear
1:55 PM 8.6 °F -6.3 °F -13.0 °F 37% 29.83 in 10.0 mi West 11.5 mph 16.1 mph N/A   Clear
2:15 PM 8.6 °F -3.7 °F -13.0 °F 37% 29.83 in 10.0 mi West 8.1 mph - N/A   Clear
2:35 PM 8.6 °F -7.7 °F -13.0 °F 37% 29.84 in 10.0 mi West 13.8 mph - N/A   Clear
2:55 PM 8.6 °F -5.5 °F - N/A% 29.84 in 10.0 mi West 10.4 mph - N/A   Clear
3:15 PM 8.6 °F -6.3 °F -13.0 °F 37% 29.85 in 10.0 mi West 11.5 mph - N/A   Clear
3:35 PM 8.6 °F -5.5 °F -13.0 °F 37% 29.85 in 10.0 mi WSW 10.4 mph 18.4 mph N/A   Clear
3:55 PM 8.6 °F -6.3 °F -13.0 °F 37% 29.85 in 10.0 mi West 11.5 mph - N/A   Clear
4:15 PM 8.6 °F -5.5 °F -13.0 °F 37% 29.85 in 10.0 mi West 10.4 mph - N/A   Clear
4:35 PM 8.6 °F -1.3 °F -11.2 °F 40% 29.85 in 10.0 mi WSW 5.8 mph - N/A   Clear
4:55 PM 6.8 °F -0.1 °F -13.0 °F 40% 29.86 in 10.0 mi SW 3.5 mph - N/A   Clear
5:15 PM 6.8 °F -2.0 °F -11.2 °F 44% 29.87 in 10.0 mi WSW 4.6 mph - N/A   Clear
5:35 PM 3.2 °F - -11.2 °F 51% 29.88 in 10.0 mi Calm Calm - N/A   Clear
5:55 PM 3.2 °F - -13.0 °F 47% 29.88 in 10.0 mi Calm Calm - N/A   Clear
6:15 PM 3.2 °F - -11.2 °F 51% 29.88 in 10.0 mi Calm Calm - N/A   Clear
6:35 PM 3.2 °F - -11.2 °F 51% 29.89 in 10.0 mi Calm Calm - N/A   Clear
6:55 PM 1.4 °F -8.3 °F -11.2 °F 56% 29.89 in 10.0 mi West 4.6 mph - N/A   Clear
7:35 PM 3.2 °F - -9.4 °F 56% 29.90 in 10.0 mi Calm Calm - N/A   Clear
7:55 PM -2.2 °F - -13.0 °F 60% 29.89 in 10.0 mi Calm Calm - N/A   Clear
8:15 PM -2.2 °F - -5.8 °F 85% 29.89 in 10.0 mi Calm Calm - N/A   Partly Cloudy
8:35 PM -2.2 °F - -9.4 °F 71% 29.88 in 10.0 mi Calm Calm - N/A   Mostly Cloudy
8:55 PM -4.0 °F - -9.4 °F 78% 29.88 in 10.0 mi Calm Calm - N/A   Partly Cloudy
9:15 PM -4.0 °F - -11.2 °F 71% 29.88 in 10.0 mi Calm Calm - N/A   Clear
9:35 PM -5.8 °F - -7.6 °F 92% 29.88 in 10.0 mi Calm Calm - N/A   Clear
10:15 PM -4.0 °F - -5.8 °F 92% 29.88 in 10.0 mi Calm Calm - N/A   Clear
10:35 PM -5.8 °F - -16.6 °F 60% 29.89 in 10.0 mi Calm Calm - N/A   Clear
10:55 PM -7.6 °F - -13.0 °F 77% 29.89 in 10.0 mi Calm Calm - N/A   Clear
11:15 PM -5.8 °F - -5.8 °F 100% 29.90 in 10.0 mi Calm Calm - N/A   Mostly Cloudy
11:35 PM -5.8 °F - -14.8 °F 65% 29.90 in 10.0 mi Calm Calm - N/A   Mostly Cloudy
11:55 PM -4.0 °F - -5.8 °F 92% 29.90 in 10.0 mi Calm Calm - N/A   Mostly Cloudy